Погода в Ческа-Скалице

Чехия     50°23′40″N   16°02′32″E
темп.,
°C
ветер,
м/с
пор.,
м/с
влажн.,
%
обл.,
%
осадки,
мм/ч
давл.,
гПа
погр.,
м
14 мая, пт
пт1423:00+9ссз2595100 0.1 1002290
02:00+9з1296100 0.2 1003130
05:00+9зюз1297100 0.0 1003142
08:00+9зюз2498100 0.4 1004284
11:00+9зюз2496100 1.9 1005292
14:00+9зюз469399 2.1 1007405
17:00+11з467596 0.0 1007935
20:00+9зюз228494 0.0 100841
15 мая, сб
сб1523:00+6ююз1194100 0.0 101011
02:00+6ююз119697 0.0 101013
05:00+5ю119826 0.0 101010
08:00+9ююз238989 0.0 1010342
11:00+13юз4571100 0.0 1009900
14:00+15юз4563100 0.1 10081279
17:00+13юв127129 0.4 1007528
20:00+11юв2287100 1.6 100620
16 мая, вс
вс1623:00+10сз2295100 2.0 100659
02:00+8ссз1193100 6.4 100618
05:00+8юз2798100 0.0 1006364
08:00+8зюз4793100 0.1 1007453
11:00+10юз5679100 0.1 1008961
14:00+12з576821 0.3 10071104
17:00+12зюз468293 0.8 1006738
20:00+9юз248743 1.3 100686
17 мая, пн
пн1723:00+7ююз229432 0.0 100834
02:00+5ю229833 0.0 100826
05:00+4ю229868 0.0 100844
08:00+8юз379179 0.0 1009473
11:00+11зюз588145 0.5 1008960
14:00+12зюз7108134 2.0 10081101
17:00+13зюз69676 0.8 10081356
20:00+9зюз49817 0.9 1009397
18 мая, вт
вт1823:00+6юз249346 0.0 101193
02:00+4ююз1296100 0.0 101121
05:00+4ююз259895 0.0 1011163
08:00+7зюз379195 0.0 1011526
11:00+10з477893 0.4 1011993
14:00+12з576862 0.8 10111334
17:00+11з688045 1.2 10121081
20:00+8з37895 1.7 1013199